Location: Wien
(48.2082°N, 16.3738°E)
Time: 11:36:29
(UTC+02:00)

Tiros 1 despin weight - Pass Details

Date: 14 September 2024
Orbit: 573 x 615 km, 48.2° (Epoch: 06 October)

Event Time Altitude Azimuth Distance (km) Brightness Sun altitude
Rises 10:40:10 0° 282° (WNW) 2,889 ? 37.1°
Reaches altitude 10° 10:42:59 10° 265° (W) 1,976 ? 37.4°
Maximum altitude 10:46:15 20° 219° (SW) 1,432 ? 37.7°
Drops below altitude 10° 10:49:30 10° 173° (S) 1,954 ? 38.1°
Sets 10:52:16 0° 156° (SSE) 2,845 ? 38.4°
